[[{"header":{"parameterUnit":"m.s-1","parameterCategory":1,"la1":30.2992,"la2":30.254,"lo1":-89.0895,"lo2":-89.0443,"dy":0.0025,"dx":0.0025,"nx":19,"ny":19,"refTime":"2026-05-22T03:00:00:Z","depth":0,"parameterNumber":2,"parameterNumberName":"U-component_of_WINDS"},"data":[0,0,0,-2.7781,-2.7781,-2.7788,-2.7788,-2.7811,-2.7812,0,0,0,0,0,0,0,0,0,0,0,-2.7786,-2.7786,-2.7781,-2.7781,-2.7788,-2.7788,-2.7811,-2.7812,0,0,0,0,0,0,0,0,0,0,0,-2.7786,-2.7786,-2.7787,-2.7781,-2.7788,-2.7788,-2.7811,-2.7801,0,0,0,0,0,0,0,0,0,0,-2.7791,-2.7803,-2.7786,-2.7787,-2.7781,-2.7788,-2.7788,-2.78,-2.7802,-2.7813,0,-2.7826,0,-2.7819,-2.7814,-2.7814,0,0,0,-2.7775,-2.7802,-2.7798,-2.7787,-2.7781,-2.7788,-2.7784,-2.7801,-2.7802,-2.7815,-2.7826,-2.7826,-2.7819,-2.7814,-2.7814,-2.7899,-2.79,0,0,-2.7775,-2.7791,-2.7797,-2.7799,-2.7798,-2.7783,-2.7784,-2.7802,-2.7814,-2.7826,-2.7827,-2.782,-2.7814,-2.7815,-2.7899,-2.79,0,0,0,-2.7778,-2.7791,-2.7786,-2.7798,-2.7799,-2.7784,-2.7784,-2.7813,-2.781,-2.7827,-2.782,-2.7815,-2.7815,-2.7898,-2.7899,-2.7946,0,0,0,-2.7777,-2.7793,-2.7786,-2.7796,-2.7799,-2.7806,-2.7796,-2.7809,-2.781,-2.782,-2.7815,-2.7815,-2.7897,-2.7899,-2.7943,-2.7964,0,0,0,-2.7783,-2.7793,-2.7797,-2.7797,-2.7801,-2.7805,-2.7803,-2.7809,-2.7807,-2.7814,-2.7816,-2.7897,-2.7898,-2.794,-2.796,-2.799,0,0,0,-2.7794,-2.7839,-2.7798,-2.7846,-2.7801,-2.7835,-2.7803,-2.7827,-2.7839,-2.7815,-2.7897,-2.7899,-2.7939,-2.7958,-2.7988,-2.8017,-2.8031,0,0,-2.786,-2.7848,-2.7875,-2.7838,-2.7883,-2.7832,-2.7884,-2.788,-2.7867,-2.7889,-2.7891,-2.7944,-2.796,-2.799,-2.8109,-2.812,0,0,0,-2.7901,-2.7921,-2.7929,-2.7941,-2.7939,-2.7939,-2.7925,-2.7924,-2.7942,-2.7882,-2.7963,-2.7972,-2.7989,-2.8002,-2.8012,-2.8025,-2.7906,-2.7906,-2.7906,-2.8018,-2.7997,-2.8041,-2.8021,-2.8033,-2.8019,-2.8027,-2.8022,-2.7999,-2.8019,-2.8025,-2.8099,-2.8116,-2.8123,-2.8136,-2.804,-2.804,-2.8041,-2.8041,-2.8112,-2.8135,-2.8103,-2.8133,-2.8112,-2.8137,-2.8125,-2.8108,-2.8128,-2.8093,-2.8107,-2.8069,-2.8136,-2.8146,-2.8044,-2.8043,-2.8043,-2.8043,-2.8042,-2.8184,-2.8191,-2.8189,-2.8203,-2.8217,-2.8197,-2.8218,-2.8198,-2.818,-2.8194,-2.8197,-2.8196,-2.8191,-2.8197,-2.8197,-2.8198,-2.8198,-2.8198,-2.8198,-2.8259,-2.8255,-2.8274,-2.8276,-2.828,-2.8284,-2.8271,-2.8275,-2.8275,-2.8259,-2.8259,-2.8233,-2.8147,-2.8124,-2.8202,-2.8201,-2.8201,-2.8201,-2.82,-2.8358,-2.8333,-2.8363,-2.8367,-2.8367,-2.8382,-2.8357,-2.8368,-2.8369,-2.838,-2.8351,-2.8291,-2.8277,-2.8269,-2.8251,-2.8356,-2.8356,-2.8356,-2.8356,-2.8418,-2.8409,-2.8435,-2.8443,-2.845,-2.843,-2.8465,-2.8455,-2.8441,-2.8441,-2.8423,-2.8397,-2.839,-2.838,-2.837,-2.8352,-2.8481,-2.8481,-2.8481,-2.8477,-2.8468,-2.8501,-2.8486,-2.8485,-2.8484,-2.8515,-2.8527,-2.8506,-2.8486,-2.8439,-2.8434,-2.8392,-2.838,-2.8356,-2.8341,-2.8308,0,0]},{"header":{"parameterUnit":"m.s-1","parameterCategory":1,"la1":30.2992,"la2":30.254,"lo1":-89.0895,"lo2":-89.0443,"dy":0.0025,"dx":0.0025,"nx":19,"ny":19,"refTime":"2026-05-22T03:00:00:Z","depth":0,"parameterNumber":3,"parameterNumberName":"V-component_of_WINDS"},"data":[0,0,0,3.5639,3.564,3.5702,3.5702,3.5786,3.5787,0,0,0,0,0,0,0,0,0,0,0,3.5626,3.5627,3.5639,3.5641,3.5702,3.5702,3.5786,3.5787,0,0,0,0,0,0,0,0,0,0,0,3.5626,3.5627,3.5628,3.5641,3.5702,3.5702,3.5786,3.5737,0,0,0,0,0,0,0,0,0,0,3.5677,3.567,3.5626,3.5628,3.5641,3.5702,3.5702,3.5735,3.574,3.5762,0,3.5783,0,3.5787,3.5793,3.5794,0,0,0,3.5636,3.5666,3.5678,3.5628,3.5642,3.5702,3.5673,3.5738,3.5744,3.5769,3.5785,3.5787,3.5788,3.5794,3.5794,3.5936,3.5937,0,0,3.5633,3.5639,3.5673,3.5682,3.5674,3.5671,3.5675,3.5741,3.5758,3.5785,3.5789,3.579,3.5795,3.5795,3.5935,3.5936,0,0,0,3.5626,3.5637,3.5647,3.5679,3.5689,3.5673,3.5677,3.5755,3.5758,3.579,3.5791,3.5795,3.5796,3.5934,3.5936,3.5987,0,0,0,3.5624,3.5633,3.5646,3.5651,3.5688,3.5723,3.569,3.5753,3.5761,3.579,3.5795,3.5797,3.5933,3.5935,3.5983,3.601,0,0,0,3.562,3.5633,3.5644,3.5651,3.5678,3.5722,3.5729,3.5755,3.5761,3.5794,3.5797,3.5933,3.5935,3.598,3.6004,3.605,0,0,0,3.5618,3.5686,3.5644,3.5721,3.5677,3.5753,3.5728,3.5784,3.5817,3.5796,3.5934,3.5936,3.5979,3.6001,3.6047,3.6091,3.611,0,0,3.5708,3.5697,3.5742,3.5706,3.5792,3.5743,3.5835,3.5859,3.5855,3.5909,3.5912,3.5984,3.6004,3.605,3.6209,3.6224,0,0,0,3.5773,3.5805,3.5826,3.586,3.588,3.59,3.5909,3.5918,3.5964,3.5885,3.6012,3.6024,3.605,3.6071,3.6083,3.6106,3.5945,3.5945,3.5945,3.591,3.5903,3.5976,3.5976,3.6009,3.6018,3.6043,3.6057,3.6038,3.6068,3.6085,3.6183,3.6208,3.6217,3.6241,3.6106,3.6106,3.6106,3.6107,3.6043,3.6088,3.6063,3.6126,3.6117,3.6168,3.6179,3.6165,3.6211,3.617,3.6192,3.6149,3.6234,3.6254,3.611,3.611,3.6109,3.6109,3.6109,3.6134,3.6154,3.6164,3.6213,3.625,3.6246,3.6293,3.6282,3.6272,3.6295,3.6312,3.6311,3.631,3.6303,3.6304,3.6304,3.6304,3.6305,3.6305,3.6225,3.6235,3.6276,3.6304,3.6325,3.635,3.636,3.6379,3.6397,3.6386,3.6386,3.6366,3.6243,3.6214,3.631,3.6309,3.6309,3.6308,3.6308,3.6365,3.6332,3.6396,3.6417,3.6449,3.6488,3.6473,3.6513,3.6527,3.6551,3.6525,3.6436,3.6424,3.6414,3.6389,3.6526,3.6526,3.6526,3.6526,3.6444,3.6436,3.65,3.6534,3.6566,3.6559,3.6632,3.6639,3.6642,3.665,3.6628,3.6594,3.6584,3.6578,3.6564,3.6542,3.6714,3.6714,3.6714,3.6531,3.6526,3.6591,3.6594,3.6618,3.6639,3.6707,3.6746,3.6741,3.6721,3.6656,3.6648,3.6593,3.6576,3.6556,3.6535,3.6493,0,0]}]]